Location: Barnes Chapel
(35.2404°N, 90.4568°W)
Time: 02:04:08
(UTC+00:00)

Daily predictions for brighter satellites

Satellite Brightness Start Highest point End
(mag) Time Altitude Azimuth Time Altitude Azimuth Time Altitude Azimuth
Cosmos 2195 Rocket 4.5 01:37:48 10° S 01:43:52 78° E 01:50:02 10° N
CSL-04 Rocket 3.9 01:39:28 10° SSE 01:44:32 50° ENE 01:49:40 10° N
Okean O Rocket 2.2 01:41:48 10° SE 01:45:54 39° ENE 01:49:58 10° N
Tiangong -0.4 01:43:19 10° NW 01:46:09 29° N 01:48:58 10° ENE
NOSS 3-4 (A) 4.1 01:42:20 10° NNW 01:49:38 85° WSW 01:57:58 10° SSE
NOSS 3-4 (C) 4.1 01:42:22 10° NNW 01:49:40 86° WSW 01:57:57 10° SSE
ASTRO E2 4.2 01:47:53 10° SSW 01:49:56 15° SSE 01:51:57 10° ESE
COSMOS 2406 3.2 01:48:28 10° SSW 01:54:13 82° ESE 01:59:59 10° NNE
Cosmos 1666 Rocket 3.5 01:50:58 10° N 01:55:19 78° E 01:59:41 10° S
Cosmos 1092 Rocket 4.1 01:49:14 10° S 01:55:32 81° E 02:01:54 10° N
Cosmos 1766 3.8 01:52:06 10° N 01:55:38 38° E 01:59:08 10° SSE
Cosmos 1674 2.9 01:53:23 10° SSE 01:56:39 41° E 01:59:55 10° NNE
CSL-04 Debris 4.2 01:52:04 10° SSE 01:57:29 74° ENE 02:02:52 10° N
Cosmos 1980 Rocket 2.4 01:52:32 10° NNW 01:58:09 58° ENE 02:03:41 10° SE
SPOT 1/Viking Rocket 4.2 01:54:13 10° S 01:59:14 55° W 02:04:16 10° NNW
Cosmos 1763 Rocket 4.3 01:55:53 10° N 02:00:40 35° ENE 02:05:10 11° SE
ATLAS CENTAUR R/B 2.9 02:01:45 11° ESE 02:02:18 11° ESE 02:03:28 10° E
USA 234 3.2 02:00:49 10° NE 02:07:19 66° SE 02:13:47 10° SSW
IRIDIUM 114 4.5 02:08:59 10° N 02:14:08 57° E 02:19:14 10° SSE
Resurs 01 Rocket 1.9 02:10:23 10° S 02:14:46 69° W 02:19:09 10° NNW
Terra 3.6 02:16:12 11° ESE 02:18:50 17° ENE 02:21:53 10° NNE
IRIDIUM 103 4.3 02:18:04 10° N 02:23:18 71° E 02:28:29 10° S
ARGOS Delta rocket 4.4 02:23:05 17° SE 02:26:04 36° ENE 02:30:07 10° N
Lacrosse 5 rocket 3.9 02:24:17 10° W 02:26:16 13° WSW 02:28:14 10° SSW
Cosmos 1470 3.1 02:23:54 10° N 02:27:26 42° E 02:29:33 21° SE
CZ-4 R/B 3.9 02:26:34 10° SW 02:29:25 19° W 02:32:17 10° NW
CZ-4B R/B 4.2 02:25:28 10° S 02:30:27 43° W 02:35:32 10° NNW
Cosmos 468 Rocket 4.5 02:26:48 10° N 02:31:47 45° ENE 02:35:01 20° SE
KORONAS-FOTON 3.9 02:29:24 10° S 02:33:06 74° W 02:36:49 10° N
Cosmos 1842 3.8 02:35:13 10° SSW 02:38:47 54° W 02:42:23 10° N
SJ 16-02 3.4 02:40:03 11° E 02:40:03 11° E 02:40:48 10° ENE
IRIDIUM 106 4.5 02:36:22 10° N 02:41:34 76° W 02:46:46 10° S
IRS-1C Rocket 4.2 02:45:32 23° SE 02:48:47 59° ENE 02:53:57 10° N
In-Cosmos 22 4.1 02:43:39 10° S 02:49:15 71° E 02:54:47 10° NNE
Cosmos 2360 Rocket 4.1 02:45:51 10° NNE 02:49:28 17° NE 02:52:15 12° E
Cosmos 540 Rocket 3.4 02:46:07 10° NNW 02:51:16 78° ENE 02:54:15 25° SSE
RESURS DK-1 4.1 02:51:35 10° NNE 02:54:28 18° ENE 02:55:35 17° E
Cosmos 968 Rocket 4.1 02:57:17 29° SE 02:58:40 34° E 03:03:17 10° NE
SL-16 R/B 2.8 02:55:21 10° N 03:00:44 43° ENE 03:03:14 28° ESE
MOS 1 Rocket 4.2 02:59:27 28° ESE 03:01:43 42° ENE 03:06:43 10° N
Cosmos 1741 Rocket 4.1 02:58:35 22° S 03:01:44 54° ESE 03:06:53 10° NNE
Okean-O 3.3 02:58:43 17° S 03:01:54 51° W 03:06:11 10° NNW
Cosmos 2333 Rocket 3.9 02:58:28 10° N 03:02:39 20° ENE 03:05:07 16° E
Cosmos 1707 4.2 03:00:33 10° SW 03:03:48 32° W 03:07:06 10° NNW
SeaSat 1 2.9 03:02:21 30° ESE 03:04:26 49° ENE 03:09:10 10° NNW
Cosmos 2369 4.4 02:59:04 10° NNW 03:04:34 49° WSW 03:08:36 18° S
Atlas Centaur 2 3.1 03:01:17 10° W 03:09:17 61° S 03:14:18 25° ESE
Cosmos 1758 4.4 03:06:47 10° NNE 03:10:13 28° ENE 03:10:17 28° E
Cosmos 1833 4.5 03:08:31 31° SSE 03:10:35 44° ESE 03:15:54 10° NE
USA 245 2.9 03:10:21 57° ESE 03:10:46 65° ENE 03:14:41 10° N
Cosmos 381 Rocket 4.5 03:06:56 10° NNW 03:13:18 85° WSW 03:16:43 29° SSE
SPOT 5 3.1 03:14:18 26° SSW 03:16:27 53° W 03:20:42 10° NNW
IRS-1A Rocket 4.3 03:14:38 28° S 03:17:38 78° WSW 03:23:09 10° NNW
SL-08 ROCKET BODY 4.4 03:14:48 19° S 03:19:25 86° W 03:25:32 10° N
Cosmos 2228 Rocket 3.1 03:18:36 46° SSE 03:19:41 61° E 03:24:12 10° NNE
Okean O Rocket 4.2 03:19:44 10° SW 03:22:17 15° W 03:24:48 10° WNW
Tiangong -1.9 03:20:00 10° WNW 03:22:45 64° W 03:22:45 64° W
Cosmos 1356 Rocket 3.3 03:25:55 60° SSE 03:26:32 72° E 03:30:43 10° NNE
Spot 1 4.4 03:23:12 10° NNE 03:27:46 56° ESE 03:28:28 50° SE
Cosmos 1869 Rocket 3.8 03:24:26 10° NNW 03:28:51 65° W 03:30:18 40° SSW
Cosmos 1400 Rocket 3.7 03:28:43 25° SW 03:30:36 45° W 03:34:20 10° N
Meteor 1-12 Rocket 4.3 03:24:50 10° N 03:30:51 71° E 03:32:55 42° SSE
S3M 4.0 03:25:19 10° N 03:31:41 84° W 03:34:41 34° S
ERS-1 Rocket 3.2 03:30:43 36° S 03:32:41 66° WSW 03:37:41 10° NNW
Cosmos 1655 Rocket 4.0 03:34:27 27° S 03:38:10 83° W 03:44:36 10° N
Meteor 1-22 Rocket 4.4 03:33:46 10° NNW 03:39:28 74° W 03:41:50 38° S
ATLAS CENTAUR R/B 2.6 03:36:29 11° WSW 03:39:32 34° NW 03:42:47 10° N
Cosmos 841 Rocket 3.4 03:35:28 10° NNW 03:40:45 87° WSW 03:41:59 54° SSE
Cosmos 2322 Rocket 2.3 03:38:04 10° NNW 03:43:43 62° ENE 03:44:58 49° ESE
Spot 2 Rocket 3.6 03:42:27 47° S 03:43:52 71° WSW 03:48:56 10° NNW
Cosmos 1300 2.9 03:40:20 10° N 03:43:15 56° NNE 03:43:15 56° NNE
Aureole 3 3.5 03:48:02 60° NE 03:48:02 60° NE 03:51:49 10° N
Cosmos 1315 Rocket 4.1 03:49:43 30° NE 03:49:43 30° NE 03:52:10 10° NNE
Meteor 2-10 Rocket 3.7 03:49:45 10° NNW 03:55:13 69° W 03:56:28 51° SSW
Cosmos 2278 4.4 03:49:58 10° NW 03:55:24 46° WSW 03:57:04 36° SSW
Cosmos 1862 Rocket 3.6 03:55:14 65° WSW 03:55:37 70° W 04:00:01 10° N
Cosmos 1953 4.2 03:52:48 10° NNE 03:54:38 20° NE 03:54:38 20° NE
Terra 2.7 03:54:54 35° SW 03:56:03 41° W 04:00:31 10° NNW
Meteor 1-21 4.4 03:54:03 38° SSW 03:56:18 73° W 04:02:08 10° N
Cosmos 1244 Rocket 4.5 03:56:23 53° SE 03:57:34 64° E 04:03:46 10° NNE
Landsat 5 3.9 04:01:45 10° N 04:05:43 54° WNW 04:05:57 53° W
Okean 3 3.8 04:08:31 59° WNW 04:08:31 59° WNW 04:12:23 10° N
Ariane Rocket 3.8 04:07:33 37° SW 04:08:38 42° W 04:13:27 10° NNW
Cosmos 2219 Rocket 3.0 04:04:01 10° N 04:09:18 38° ENE 04:09:56 37° ENE
SJ 16-02 2.1 04:16:45 44° W 04:17:05 45° WNW 04:21:14 10° N
COSMOS 2455 3.7 04:24:43 34° ENE 04:24:43 34° ENE 04:28:49 10° NE
CZ-4C R/B 3.9 04:28:06 16° ENE 04:28:06 16° ENE 04:29:22 10° NE
SL-08 R/B 4.3 04:25:30 73° S 04:26:09 86° E 04:32:16 10° N
Cosmos 1346 Rocket 4.3 04:23:32 10° NNW 04:26:15 31° WNW 04:26:15 31° WNW
ARIANE 5 R/B 3.7 04:31:12 37° NNE 04:31:12 37° NNE 04:34:16 10° N
RESURS DK-1 4.1 04:28:38 10° NW 04:31:10 26° W 04:31:10 26° W
Cosmos 2360 Rocket 2.3 04:28:18 10° NNW 04:33:53 63° WSW 04:34:00 63° WSW
ATLAS 2AS CENTAUR R/B 2.4 04:30:01 10° NNW 04:36:46 90° NE 04:37:28 74° SSE
SeaSat 1 4.4 04:42:03 18° WSW 04:42:03 18° WSW 04:45:20 10° WNW
SL-16 R/B 3.8 04:40:13 10° NW 04:44:28 22° W 04:45:05 22° WSW
Cosmos 1455 4.3 04:42:37 10° N 04:44:05 23° NNW 04:44:05 23° NNW
USA 281 3.2 04:45:41 60° ESE 04:46:30 66° ENE 04:53:01 10° NNW
Cosmos 2333 Rocket 2.6 04:41:38 10° NNW 04:47:07 53° WSW 04:47:07 53° WSW
Okean 1-7 4.4 04:47:58 34° WNW 04:47:58 34° WNW 04:51:27 10° NNW
CZ-2C R/B 3.4 04:50:23 64° ENE 04:50:23 64° ENE 05:02:06 10° N
GP-B 4.1 04:50:16 10° N 04:53:24 45° NNW 04:53:24 45° NNW
Atlas Centaur 2 3.7 04:50:40 10° W 04:56:31 37° SW 04:56:31 37° SW
Meteor 1-24 Rocket 4.4 05:08:46 45° ENE 05:08:46 45° ENE 05:13:17 10° NNE
Cosmos 2237 Rocket 3.9 05:04:16 10° N 05:08:31 21° ENE 05:09:21 21° ENE
Cosmos 2227 Rocket 4.0 05:10:41 21° ENE 05:10:41 21° ENE 05:13:12 10° NE
Cosmos 1745 Rocket 4.0 05:08:42 70° WSW 05:08:58 71° W 05:15:20 10° N
Cosmos 2322 3.9 05:05:26 10° NNW 05:10:29 66° NNE 05:10:29 66° NNE
Cosmos 839 Rocket 4.1 05:06:05 10° NNW 05:12:09 65° W 05:12:09 65° W
ALOS 2 4.1 05:23:09 34° NNE 05:23:09 34° NNE 05:25:49 10° N
Nadezhda 1 Rocket 4.1 05:18:27 10° NNW 05:24:27 64° W 05:24:27 64° W
Cosmos 2322 Rocket 4.3 05:24:03 10° WNW 05:26:46 15° W 05:26:46 15° W
Cosmos 2297 Rocket 2.6 05:29:40 57° NNE 05:29:40 57° NNE 05:34:08 10° NNE
CENTAUR R/B 3.6 05:33:38 28° ENE 05:33:38 28° ENE 05:37:11 10° NE
CZ-3 Stage 3 3.7 05:08:39 10° W 05:35:28 57° SSW 05:35:53 56° SSW
Meteor 2-5 Rocket 4.0 05:41:48 70° NNW 05:41:48 70° NNW 05:47:01 10° N
COSMOS 2428 3.4 05:46:52 10° NNW 05:51:11 48° WNW 05:51:11 48° WNW
Cosmos 2219 Rocket 3.9 05:48:25 10° NW 05:51:37 23° W 05:51:37 23° W
Cosmos 2263 Rocket 3.8 06:03:48 23° ENE 06:03:48 23° ENE 06:06:47 10° NE
COSMOS 2455 4.3 06:07:48 27° W 06:09:13 30° NW 06:14:27 10° N
SL-12 R/B(2) 4.0 06:09:01 73° SSE 06:09:40 78° ESE 06:18:45 10° NNE
NOSS 0 Rocket 4.2 06:04:47 10° NNW 06:10:02 60° WNW 06:10:02 60° WNW
CZ-4C R/B 3.6 06:13:08 23° NW 06:13:31 23° NW 06:17:41 10° N
NOSS 3-2 (A) 4.2 06:18:58 37° ENE 06:18:58 37° ENE 06:22:38 10° NE
Cosmos 2184 Rocket 4.0 06:22:41 79° NNW 06:22:41 79° NNW 06:28:42 10° N
Cosmos 967 Rocket 4.5 06:39:22 80° ENE 06:39:22 80° ENE 06:45:32 10° NNE
Cosmos 2154 Rocket 4.0 06:39:30 75° NW 06:39:30 75° NW 06:45:26 10° N
SL-16 R/B 3.2 06:40:22 10° N 06:45:41 39° ENE 06:46:35 37° E
SL-4 R/B 4.2 06:43:20 10° NW 06:45:06 23° NNW 06:45:06 23° NNW
Cosmos 2082 4.0 06:51:06 60° ENE 06:51:06 60° ENE 06:55:53 10° NNE
Cosmos 2227 Rocket 3.1 06:52:28 38° WNW 06:52:28 38° WNW 06:57:40 10° N
H-2A R/B 4.2 06:49:11 10° NNW 06:51:12 20° NW 06:51:12 20° NW
Cosmos 2237 Rocket 3.2 06:47:23 10° NNW 06:51:08 37° WNW 06:51:08 37° WNW
SL-8 Rocket 4.4 06:57:10 49° E 06:57:28 50° E 07:03:24 10° NNE
IDEFIX/ARIANE 42P 4.0 06:53:18 10° NE 06:57:28 27° E 06:57:28 27° E
Meteor 1-11 4.5 07:04:41 62° E 07:04:41 62° E 07:10:17 10° NNE
Cosmos 962 Rocket 4.4 07:06:13 82° SE 07:06:25 83° E 07:12:47 10° N
Cosmos 1455 Rocket 4.2 07:02:40 10° N 07:05:42 42° N 07:05:42 42° N
CZ-2D R/B 3.7 07:03:11 10° NE 07:07:21 23° E 07:07:38 23° E
Meteor 1-21 Rocket 4.5 07:07:55 61° WNW 07:07:55 61° WNW 07:13:11 10° N
Cosmos 1538 Rocket 4.3 07:03:51 10° NNW 07:08:17 64° N 07:08:17 64° N
Cosmos 2297 Rocket 4.5 07:11:26 12° WNW 07:13:11 13° NW 07:15:49 10° NNW
Cosmos 2219 3.8 07:15:09 45° WNW 07:15:09 45° WNW 07:20:26 10° N
Cosmos 372 Rocket 4.1 07:22:07 69° NNW 07:22:07 69° NNW 07:26:48 10° NNE
CENTAUR R/B 3.6 07:20:44 28° WNW 07:22:10 31° NW 07:28:01 10° NNE
NPP 4.1 07:19:23 10° NNE 07:24:37 49° E 07:24:45 49° ESE
Cosmos 2341 Rocket 3.8 07:27:49 78° SW 07:28:12 83° W 07:34:26 10° N
USA 238 DEB 4.0 07:28:50 44° SE 07:29:14 45° ESE 07:35:18 10° NE
USA 238 4.0 07:28:52 43° SE 07:29:17 44° ESE 07:35:21 10° NE
Helios 1A Rocket 4.5 07:33:25 28° NNW 07:33:25 28° NNW 07:35:19 10° NNW
ADEOS II 3.5 07:28:56 10° NE 07:33:20 27° E 07:34:18 25° ESE
Cosmos 1461 4.2 07:36:27 35° N 07:36:27 35° N 07:39:02 10° NNE
Cosmos 923 Rocket 4.3 07:31:56 10° N 07:37:08 61° ENE 07:37:48 56° ESE
Cosmos 1937 Rocket 3.7 07:38:33 62° WNW 07:38:33 62° WNW 07:43:34 10° N
Cosmos 864 Rocket 4.3 07:38:09 71° SSW 07:38:55 85° W 07:45:17 10° N
MOZ.5/SAFIR/RUBIN 5/SL-8 3.9 07:39:56 71° NNE 07:39:56 71° NNE 07:44:10 10° N
Cosmos 1898 Rocket 4.2 07:42:11 40° WNW 07:42:11 40° WNW 07:46:52 10° N
Meteor 2-1 Rocket 4.1 07:36:21 10° N 07:42:15 84° W 07:42:41 77° SSW
Cosmos 2263 Rocket 3.1 07:45:28 35° WNW 07:45:54 35° WNW 07:51:00 10° N
Resurs 1-4 Rocket 2.2 07:41:36 10° NNE 07:46:50 62° E 07:47:22 58° SE
Cosmos 1821 Rocket 3.9 08:00:01 54° S 08:01:31 82° E 08:07:39 10° N
Cosmos 2218 Rocket 4.2 08:03:34 49° WSW 08:04:31 53° W 08:10:34 10° N
Cosmos 1844 Rocket 2.9 08:04:20 50° SSE 08:05:28 61° ESE 08:10:58 10° NNE
Delta 2 Rocket 3.8 08:07:47 51° E 08:07:47 51° E 08:11:00 10° E
Cosmos 2366 rocket 4.4 08:10:21 41° WSW 08:11:21 45° W 08:17:19 10° N
ALOS 3.5 08:07:45 10° NNE 08:11:55 33° E 08:13:24 27° SE
Cosmos 1437 Rocket 2.9 08:12:41 68° NNE 08:12:41 68° NNE 08:16:03 10° N
NOSS 3-2 (C) 3.9 08:12:44 35° W 08:13:55 40° NW 08:19:24 10° NNE
Cosmos 1544 Rocket 4.2 08:14:27 10° NNW 08:18:04 42° WNW 08:18:04 42° WNW
Cosmos 1680 Rocket 3.3 08:14:08 10° NNW 08:19:19 73° WSW 08:20:14 58° SSW
USA 267 3.2 08:15:00 10° NE 08:21:33 77° SE 08:24:01 41° SSW
Cosmos 2112 Rocket 3.8 08:16:24 10° NNW 08:21:35 83° WSW 08:23:06 48° S
Cosmos 1818 3.4 08:16:20 10° NNW 08:21:50 87° WSW 08:24:48 28° SSE
Cosmos 2228 3.2 08:18:04 10° NNW 08:21:59 56° WNW 08:21:59 56° WNW
MSX 4.1 08:18:37 10° N 08:24:10 53° WNW 08:25:33 43° WSW
COSMOS 2441 4.3 08:23:34 10° N 08:28:20 68° WNW 08:29:14 55° SW
SL-16 R/B 3.5 08:25:01 10° NW 08:28:24 23° W 08:28:24 23° W
Cosmos 1603 4.2 08:29:00 10° NNW 08:34:41 61° ENE 08:40:19 10° SSE
SL-16 R/B 3.0 08:28:40 10° SSE 08:34:48 61° ENE 08:40:57 10° N
IDEFIX/ARIANE 42P 3.6 08:32:35 10° N 08:37:09 31° WNW 08:38:13 28° W
CZ-2C R/B 2.7 08:37:15 44° SW 08:38:28 54° W 08:43:41 10° NNW
Cosmos 1934 Rocket 4.2 08:36:19 24° S 08:40:15 69° E 08:46:35 10° NNE
SEDSat Delta rocket 3.3 08:41:06 42° SSE 08:41:06 42° SSE 08:44:34 10° E
CZ-2C R/B 3.5 08:38:20 10° N 08:43:26 47° WNW 08:44:53 37° WSW
Cosmos 1943 3.1 08:38:56 10° NNW 08:44:30 66° WSW 08:47:43 26° S
CZ-2D R/B 2.9 08:42:34 10° N 08:47:24 36° WNW 08:48:55 30° WSW
FENGYUN 3A 3.9 08:45:36 10° N 08:50:49 54° WNW 08:52:54 34° SW
Cosmos 1606 Rocket 3.4 08:49:51 10° N 08:54:17 77° W 08:56:15 32° S
Envisat 3.8 08:49:40 10° NNE 08:54:33 46° E 08:58:28 15° SSE
ASTEX 1 3.3 08:52:22 31° S 08:54:42 74° W 08:59:33 10° N
Cosmos 921 Rocket 2.9 08:50:52 10° NNW 08:55:04 83° ENE 08:57:56 20° SSE
Cosmos 1048 Rocket 4.5 08:50:51 10° N 08:56:02 62° ENE 09:01:16 10° SSE
Cosmos 1125 Rocket 3.5 08:57:56 30° SSW 09:00:39 89° WNW 09:05:58 10° NNE
CZ-2C R/B 3.6 09:01:09 10° NNE 09:05:18 34° E 09:09:29 10° SSE
Orbus 7S? 3.8 09:02:57 10° NW 09:06:24 90° NNE 09:13:41 10° SE
Iridium 2 3.6 09:09:46 34° NW 09:09:46 34° NW 09:11:35 10° NNW
Cosmos 1726 Rocket 3.5 09:05:22 10° NNW 09:09:46 70° W 09:12:35 22° S
Cosmos 1238 Rocket 4.0 09:06:53 10° NNE 09:09:50 31° E 09:12:31 10° SE
Cosmos 494 Rocket 4.0 09:06:49 10° NNW 09:12:00 64° WSW 09:17:10 10° S
Cosmos 1812 2.6 09:09:17 10° N 09:12:52 76° E 09:15:37 16° SSE
ADEOS II 3.1 09:08:18 10° N 09:12:53 32° WNW 09:15:11 22° WSW
Cosmos 2150 Rocket 4.4 09:09:20 17° S 09:13:15 62° ESE 09:18:27 10° NNE
Cosmos 2058 2.7 09:12:19 26° SSW 09:14:29 81° W 09:18:34 10° N
IRAS Rocket 4.3 09:11:49 10° N 09:17:16 66° WNW 09:20:58 21° SSW
SAR-Lupe-4 4.1 09:17:55 10° N 09:21:16 40° WNW 09:22:35 28° WSW
USA 81 4.0 09:19:08 10° N 09:24:24 74° W 09:29:37 10° S
YAOGAN 6 3.5 09:21:38 10° NNE 09:24:39 39° E 09:27:31 11° S
Resurs 1-4 Rocket 4.0 09:23:11 10° NNW 09:26:03 15° WNW 09:28:26 11° W
ATLAS 5 CENTAUR R/B 1.2 09:25:49 22° S 09:27:39 56° ESE 09:30:57 10° NE
NOSS 2-2 (E) 3.7 09:25:46 18° S 09:28:09 45° ESE 09:31:14 10° NE
Timation 2 Rocket 4.2 09:23:52 20° SW 09:28:39 62° WNW 09:35:03 10° NNE
Iridium 4 Rocket 3.2 09:24:30 10° N 09:29:03 81° W 09:34:00 10° S
UNK 3.7 09:25:41 10° S 09:30:14 62° W 09:34:47 10° NNW
Meteor 1-28 Rocket 4.5 09:35:43 19° WSW 09:36:13 19° W 09:38:51 10° NW
Cosmos 724 4.4 09:33:43 10° NNW 09:39:33 81° ENE 09:45:25 10° SSE
Cosmos 1544 3.1 09:42:30 23° SW 09:43:32 31° W 09:45:56 10° NNW
Thor Agena Rocket 3.9 09:39:22 10° NNE 09:44:38 67° ESE 09:49:50 10° S
NOSS 2-3 (D) 3.3 09:42:00 14° SSW 09:45:05 69° ESE 09:48:48 10° NE
NOAA 11 4.3 09:40:52 10° N 09:46:17 63° WNW 09:51:38 10° SSW
Delta 2 Rocket 3.3 09:43:32 10° W 09:47:32 62° SSW 09:51:56 10° ESE
Cosmos 2058 Rocket 3.3 09:43:44 10° NNW 09:48:00 49° W 09:52:13 10° SSW
ALOS 3.8 09:45:29 10° NNW 09:48:51 20° WNW 09:51:42 12° WSW
Cosmos 1844 Rocket 4.5 09:46:09 10° W 09:49:45 17° NW 09:53:20 10° NNW
Cosmos 1758 Rocket 3.7 09:45:22 10° S 09:49:48 80° E 09:54:13 10° N
Cosmos 2298 Rocket 4.3 09:49:11 13° SW 09:53:53 52° WNW 09:59:05 10° N
Cosmos 1666 4.5 09:51:07 10° SSE 09:54:06 28° E 09:57:05 10° NNE
BREEZE-M DEB (TANK) 4.1 09:54:25 12° WSW 09:57:37 62° NNW 10:09:24 10° NE
Cosmos 1607 4.1 09:55:13 10° NW 10:01:23 54° WSW 10:07:23 10° S
NOSS 2-2 (C) 3.9 10:00:13 12° WSW 10:03:03 32° NW 10:05:55 10° N
Cosmos 1605 Rocket 4.5 09:57:24 10° SSW 10:03:13 41° W 10:09:01 10° N
USA 267 4.5 09:58:32 10° NNE 10:04:06 31° NNW 10:09:40 10° W
Cosmos 1500 3.3 10:05:05 10° S 10:08:29 66° E 10:11:54 10° NNE
Cosmos 1626 Rocket 4.3 10:07:29 10° SW 10:11:32 35° W 10:15:37 10° NNW
Cosmos 2278 Rocket 2.9 10:06:05 10° S 10:11:35 56° ESE 10:17:07 10° NNE
NOSS 2-2 (D) 3.4 10:08:20 10° SW 10:11:48 45° WNW 10:14:50 10° NNE
NOSS 2-3 (E) 3.6 10:08:47 10° SW 10:12:19 46° NW 10:15:58 10° NNE
Meteor 2-2 Rocket 4.2 10:07:33 10° N 10:13:12 83° W 10:18:48 10° S
USA 276 4.0 10:11:44 10° S 10:14:02 21° SE 10:16:16 10° E
H-2A R/B 2.5 10:08:48 10° NNE 10:14:05 68° ESE 10:19:10 10° S
Cosmos 1939 Rocket 4.3 10:12:53 10° NNE 10:16:37 39° E 10:20:16 10° SSE
NOSS 2-3 (C) 3.8 10:14:16 10° SW 10:17:42 39° NW 10:21:15 10° NNE
SL-16 R/B 3.9 10:14:40 10° SW 10:18:43 18° W 10:22:48 10° NW
Cosmos 1862 3.2 10:15:19 10° SSW 10:19:05 66° W 10:22:52 10° N
Cosmos 2346 Rocket 4.4 10:13:23 10° N 10:19:26 79° W 10:25:28 10° S
IRS-1D 3.9 10:15:36 10° N 10:20:32 48° WNW 10:25:21 10° SW
